Flag for U.S.A. Weather past 2 weeks in Bryan – College Station, Texas, U.S.A.

Now
95 °F

Sunny.


Feels Like: 100 °F
Forecast: 76 / 96 °F
Wind: No wind

Location: Easterwood Field

Current Time: Jul 28, 2014 at 4:10:56 PM

Latest Report: Jul 28, 2014 at 2:53 PM


Visibility: 10 mi

Pressure: 30.06 "Hg

Humidity: 41%

Dew point: 68 °F

Location of Bryan – College StationLocation

Historic Weather in Bryan – College Station — Graph

°F

Bryan – College Station temperature yesterday

Maximum temperature yesterday: 95 °F (at 3:53 PM)
Minimum temperature yesterday: 76 °F (at 4:53 AM)
Average temperature yesterday: 85 °F

Past Weeks' High & Low Weather Summary

 TemperatureHumidityPressure
High96 °F (Jul 13, 3:53 PM)97% (Jul 18, 1:53 AM)30.13 "Hg (Jul 18, 1:53 AM)
Low70 °F (Jul 19, 5:53 AM)36% (Jul 14, 4:53 PM)29.80 "Hg (Jul 17, 4:53 PM)
Average82 °F72%29.98 "Hg
* Reported Jul 13 2:53 PM — Jul 28 2:53 PM, Bryan – College Station, Weather by CustomWeather, © 2014

Note: Actual official high and low records may vary slightly from our data, if they occured in-between our weather recording intervals... More about our weather records

Advertising

Bryan – College Station weather history for previous 24 hours

 ConditionsComfort  
Time TempWeatherWind HumidityBarometerVisibility
2:53 PM
Jul 28
95 °FSunny.No wind41%30.06 "Hg10 mi
1:53 PM91 °FSunny.5 mph50%30.08 "Hg10 mi
12:53 PM89 °FSunny.5 mph57%30.10 "Hg10 mi
11:53 AM87 °FSunny.7 mph63%30.12 "Hg10 mi
10:53 AM84 °FPassing clouds.5 mph70%30.13 "Hg10 mi
9:53 AM82 °FScattered clouds.10 mph74%30.12 "Hg10 mi
8:53 AM79 °FOvercast.10 mph82%30.11 "Hg10 mi
8:04 AM77 °FPartly sunny.9 mph90%30.11 "Hg9 mi
7:53 AM76 °FScattered clouds.8 mph94%30.09 "Hg7 mi
6:53 AM75 °FClear.No wind90%30.08 "Hg9 mi
5:53 AM76 °FClear.No wind91%30.07 "Hg10 mi
4:53 AM76 °FClear.No wind91%30.04 "Hg10 mi
3:53 AM77 °FClear.3 mph88%30.03 "Hg10 mi
2:53 AM79 °FClear.6 mph84%30.03 "Hg10 mi
1:53 AM80 °FClear.8 mph81%30.03 "Hg10 mi
12:53 AM82 °FClear.7 mph77%30.04 "Hg10 mi
11:53 PM
Jul 27
83 °FClear.8 mph72%30.03 "Hg10 mi
10:53 PM85 °FClear.6 mph65%30.03 "Hg10 mi
9:53 PM87 °FClear.12 mph61%30.01 "Hg10 mi
8:53 PM89 °FSunny.10 mph57%29.99 "Hg10 mi
7:53 PM90 °FSunny.7 mph56%29.98 "Hg10 mi
6:53 PM94 °FSunny.8 mph43%29.97 "Hg10 mi
5:53 PM95 °FSunny.12 mph44%29.97 "Hg10 mi
4:53 PM95 °FSunny.10 mph44%29.98 "Hg10 mi
Weather by CustomWeather, © 2014

See weather overviewHow to use our weather pages